DW0942 Weather Reports


time (UTC)temp
F
wind
direction
speed
knots
gust
knots
rain 1hr
in
rain 24hr
in
rain mn
in
humidity
%
barometer
mb
20260509090024 56 94 2.6 7.8 0.00 0.09 0.00 81 997.0
20260509084506 56 262 2.6 8.7 0.00 0.37 0.00 84 996.7
20260509083012 56 210 2.6 13.9 0.00 0.57 0.00 84 996.5
20260509081518 56 87 3.5 16.5 0.00 0.68 0.00 83 996.8
20260509080021 56 326 1.7 10.4 0.00 0.74 0.00 84 996.9
20260509074526 56 112 1.7 10.4 0.00 0.74 0.00 84 997.0
20260509073010 57 82 1.7 7.0 0.00 0.77 0.00 84 996.8
20260509071515 57 345 2.6 9.6 0.00 0.77 0.00 84 996.8
20260509070022 57 220 1.7 8.7 0.00 0.81 0.00 84 996.9
20260509064523 57 44 1.7 7.0 0.00 0.90 0.00 86 996.9
20260509063034 57 158 1.7 11.3 0.00 0.97 0.00 87 996.9
20260509061514 57 91 2.6 8.7 0.00 0.99 0.00 88 996.7
20260509060016 56 214 1.7 7.0 0.00 1.00 0.00 89 996.6
20260509054523 56 230 0.9 5.2 0.00 1.03 0.00 88 996.7
20260509053024 57 114 0.9 3.5 0.00 1.05 0.00 88 997.0
20260509051528 57 233 0.9 7.8 0.00 1.05 0.00 88 996.9
20260509050022 57 79 0.0 7.0 0.00 1.05 0.00 88 996.7
20260509044520 58 250 0.9 6.1 0.00 1.05 0.00 87 996.8
20260509043025 58 236 1.7 9.6 0.00 1.05 0.00 87 996.8
20260509041524 58 93 1.7 9.6 0.00 1.05 0.00 86 997.0
20260509040035 59 36 1.7 7.0 0.00 1.05 0.00 86 997.0
20260509034512 59 47 1.7 6.1 0.00 1.05 0.00 87 996.8
20260509033018 59 316 2.6 7.8 0.00 1.06 0.00 87 996.7
20260509031529 60 1 0.9 6.1 0.00 1.06 0.00 87 996.5
20260509030026 60 124 0.9 4.3 0.00 1.06 0.00 87 996.6
20260509024528 60 240 0.9 13.0 0.00 1.06 0.00 87 996.7
20260509023016 60 233 0.9 9.6 0.00 1.06 0.00 88 996.8
20260509021522 60 352 2.6 7.0 0.00 1.06 0.00 88 996.6
20260509020023 60 77 1.7 8.7 0.00 1.06 0.00 87 996.8
20260509014537 60 288 0.9 11.3 0.00 1.06 0.00 87 996.9
20260509013028 60 6 0.9 11.3 0.00 1.06 0.00 87 996.9
20260509011520 60 18 1.7 13.0 0.00 1.06 0.00 87 996.5
20260509010027 60 253 3.5 12.2 0.00 1.06 0.00 87 996.7
20260509004527 60 236 3.5 14.8 0.00 1.06 0.00 88 996.8
20260509003028 60 158 2.6 10.4 0.00 1.06 0.00 89 996.4
20260509001531 60 243 2.6 11.3 0.00 1.06 0.00 89 996.9
20260509000022 60 32 1.7 9.6 0.00 1.06 0.00 90 997.4
20260508234504 60 266 3.5 11.3 0.00 1.06 0.00 91 997.3
20260508233008 60 233 2.6 13.0 0.00 1.06 0.00 91 997.1
20260508231512 59 331 2.6 14.8 0.00 1.06 0.00 91 997.2
20260508230018 60 88 2.6 9.6 0.00 1.06 0.00 90 997.4
20260508224524 60 250 4.3 11.3 0.00 1.06 0.00 90 997.2
20260508223009 60 219 2.6 9.6 0.00 1.06 0.00 90 997.6
20260508221510 60 203 3.5 14.8 0.00 1.06 0.00 89 997.5
20260508220050 60 30 4.3 12.2 0.00 1.06 0.00 89 997.5
20260508214521 60 111 2.6 13.0 0.00 1.06 0.00 89 997.7
20260508213026 60 51 2.6 16.5 0.00 1.06 0.00 88 998.1
20260508211505 59 265 3.5 11.3 0.00 1.06 0.00 89 998.1
20260508210015 59 226 1.7 13.0 0.00 1.06 0.00 89 997.9
20260508204521 59 305 3.5 13.0 0.00 1.07 0.00 89 997.6
20260508203024 59 189 4.3 10.4 0.00 1.07 0.00 90 997.3
20260508201532 59 73 4.3 11.3 0.00 1.09 0.00 87 997.9
20260508200009 59 30 3.5 14.8 0.00 1.10 0.00 86 997.2
20260508194515 59 238 4.3 16.5 0.00 1.13 0.00 86 996.2
20260508193026 59 309 3.5 13.0 0.00 1.16 0.00 90 995.5
20260508191525 59 342 2.6 23.5 0.00 1.16 0.00 88 995.8
20260508190033 59 227 3.5 15.6 0.00 1.16 0.00 88 996.2
20260508184520 59 158 5.2 20.0 0.00 1.16 0.00 88 996.2
20260508183018 59 212 6.1 16.5 0.00 1.16 0.00 89 996.7
20260508181532 59 58 4.3 12.2 0.00 1.16 0.00 89 996.6
20260508180026 59 310 6.1 14.8 0.00 1.16 0.00 89 996.5
20260508174534 60 226 4.3 14.8 0.00 1.16 0.00 91 996.2
20260508173017 60 298 5.2 11.3 0.00 1.16 0.00 92 996.6
20260508171521 59 274 3.5 16.5 0.00 1.16 0.00 92 996.6
20260508170022 60 327 2.6 14.8 0.00 1.16 0.00 92 997.2
20260508164526 60 301 4.3 14.8 0.00 1.16 0.00 92 997.0
20260508163035 59 245 3.5 17.4 0.00 1.16 0.00 93 997.1
20260508161526 59 220 5.2 13.9 0.00 1.16 0.00 94 997.0
20260508160020 59 58 3.5 14.8 0.00 1.16 0.00 94 997.4
20260508154524 59 268 5.2 18.2 0.00 1.16 0.00 94 997.8
20260508153028 59 301 4.3 18.2 0.00 1.16 0.00 94 998.0
20260508151516 59 143 4.3 12.2 0.00 1.16 0.00 94 997.9
20260508150025 59 319 3.5 10.4 0.00 1.16 0.00 94 997.9
20260508144526 59 64 3.5 12.2 0.00 1.16 0.00 94 997.9
20260508143027 59 230 4.3 13.9 0.00 1.16 0.00 95 997.9
20260508141526 59 82 2.6 13.9 0.00 1.16 0.00 95 998.3
20260508140016 59 231 2.6 12.2 0.00 1.16 0.00 94 998.3
20260508134509 59 258 4.3 12.2 0.00 1.16 0.00 94 998.5
20260508133008 59 147 3.5 13.0 0.00 1.16 0.00 94 998.8
20260508131510 59 187 5.2 17.4 0.00 1.16 0.00 93 998.4
20260508130008 59 96 4.3 18.2 0.00 1.16 0.00 93 998.5
20260508124511 59 211 5.2 19.1 0.00 1.16 0.00 93 998.8
20260508123008 59 246 6.1 18.2 0.00 1.16 0.00 94 998.3
20260508121509 59 211 5.2 15.6 0.00 1.16 0.00 96 998.4
20260508120011 58 237 4.3 10.4 0.00 1.16 0.00 97 998.7
20260508114510 58 293 4.3 13.0 0.00 1.16 1.16 97 998.5
20260508113014 58 75 2.6 13.0 0.00 1.16 1.16 98 998.6
20260508111507 58 281 3.5 7.0 0.00 1.16 1.16 98 998.8
20260508110015 58 214 1.7 12.2 0.00 1.16 1.16 98 998.7
20260508104512 58 316 3.5 9.6 0.00 1.16 1.16 98 999.1
20260508103012 58 195 3.5 17.4 0.00 1.16 1.16 98 999.2
20260508101510 57 214 2.6 16.5 0.02 1.16 1.16 98 999.9
20260508100005 56 298 2.6 9.6 0.09 1.16 1.16 98 1000.1
20260508094510 55 252 1.7 7.0 0.37 1.16 1.16 97 999.8
20260508093012 55 266 5.2 12.2 0.57 1.16 1.16 97 1000.0
20260508091514 55 274 1.7 13.0 0.66 1.14 1.14 96 1000.5